When you browse on this site, cookies collect data to enhance your experience and personalize the content and advertising you see.
Visit our Privacy Policy to learn more. By continuing to use the site, you agree to this use of cookies and data.
  • en France
  • Liste des pays
  • À 7 jours
  • Température de l'eau
  • Carte satellitaire
  • Carte météo
  • Widgets météo
  • user-avatar
    Se connecter

    Météo par heure à Cochabamba

    Ce jour, 22 Mars, Vendredi

    Heure Température Précipitation Vent Pression Humidité
    00:00 +15°C° 0 mm 1 m/s 555 mmHg 81%
    01:00 +15°C° 0 mm 2 m/s 555 mmHg 81%
    02:00 +15°C° 0 mm 2 m/s 555 mmHg 80%
    03:00 +14°C° 0 mm 1 m/s 555 mmHg 81%
    04:00 +14°C° 0 mm 1 m/s 554 mmHg 82%
    05:00 +14°C° 0 mm 1 m/s 554 mmHg 83%
    06:00 +14°C° 0 mm 1 m/s 555 mmHg 77%
    07:00 +15°C° 0 mm 1 m/s 556 mmHg 71%
    08:00 +16°C° 0 mm 1 m/s 556 mmHg 65%
    09:00 +19°C° 0 mm 1 m/s 557 mmHg 58%
    10:00 +21°C° 0 mm 1 m/s 558 mmHg 50%
    11:00 +23°C° 0 mm 1 m/s 559 mmHg 43%
    12:00 +24°C° 0.3 mm 1 m/s 559 mmHg 41%
    13:00 +25°C° 0.3 mm 2 m/s 558 mmHg 40%
    14:00 +26°C° 0.3 mm 3 m/s 558 mmHg 38%
    15:00 +25°C° 0.7 mm 3 m/s 558 mmHg 42%
    16:00 +24°C° 0.7 mm 3 m/s 557 mmHg 45%
    17:00 +23°C° 0.7 mm 4 m/s 556 mmHg 49%
    18:00 +21°C° 0.4 mm 3 m/s 556 mmHg 56%
    19:00 +19°C° 0.4 mm 3 m/s 556 mmHg 64%
    20:00 +17°C° 0.4 mm 3 m/s 555 mmHg 71%
    21:00 +16°C° 0 mm 2 m/s 555 mmHg 75%
    22:00 +15°C° 0 mm 2 m/s 556 mmHg 78%
    23:00 +15°C° 0 mm 1 m/s 556 mmHg 81%

    Demain, 23 Mars, Samedi

    Heure Température Précipitation Vent Pression Humidité
    00:00 +14°C° 0 mm 1 m/s 555 mmHg 82%
    01:00 +14°C° 0 mm 1 m/s 555 mmHg 82%
    02:00 +12°C° 0 mm 0 m/s 555 mmHg 83%
    03:00 +13°C° 0 mm 1 m/s 555 mmHg 82%
    04:00 +13°C° 0 mm 1 m/s 555 mmHg 82%
    05:00 +13°C° 0 mm 1 m/s 555 mmHg 81%
    06:00 +14°C° 0 mm 1 m/s 555 mmHg 77%
    07:00 +14°C° 0 mm 1 m/s 556 mmHg 73%
    08:00 +14°C° 0 mm 0 m/s 557 mmHg 69%
    09:00 +18°C° 0 mm 1 m/s 558 mmHg 62%
    10:00 +19°C° 0 mm 1 m/s 558 mmHg 55%
    11:00 +21°C° 0 mm 1 m/s 559 mmHg 48%
    12:00 +22°C° 0 mm 1 m/s 559 mmHg 45%
    13:00 +23°C° 0 mm 2 m/s 558 mmHg 41%
    14:00 +24°C° 0 mm 2 m/s 558 mmHg 38%
    15:00 +24°C° 0 mm 2 m/s 558 mmHg 40%
    16:00 +23°C° 0 mm 2 m/s 557 mmHg 42%
    17:00 +23°C° 0 mm 2 m/s 556 mmHg 45%
    18:00 +20°C° 0 mm 2 m/s 556 mmHg 53%
    19:00 +19°C° 0 mm 2 m/s 555 mmHg 62%
    20:00 +17°C° 0 mm 2 m/s 555 mmHg 71%
    21:00 +16°C° 0.1 mm 1 m/s 556 mmHg 73%
    22:00 +16°C° 0.1 mm 1 m/s 556 mmHg 75%
    23:00 +16°C° 0.1 mm 1 m/s 556 mmHg 77%

    Après-demain, 24 Mars, Dimanche

    Heure Température Précipitation Vent Pression Humidité
    00:00 +16°C° 0.1 mm 1 m/s 556 mmHg 77%
    01:00 +15°C° 0.1 mm 1 m/s 556 mmHg 78%
    02:00 +15°C° 0.1 mm 1 m/s 555 mmHg 78%
    03:00 +15°C° 0 mm 1 m/s 555 mmHg 79%
    04:00 +14°C° 0 mm 1 m/s 554 mmHg 79%
    05:00 +13°C° 0 mm 0 m/s 554 mmHg 80%
    06:00 +14°C° 0 mm 0 m/s 555 mmHg 75%
    07:00 +15°C° 0 mm 0 m/s 555 mmHg 71%
    08:00 +16°C° 0 mm 0 m/s 556 mmHg 67%
    09:00 +19°C° 0.1 mm 1 m/s 557 mmHg 63%
    10:00 +20°C° 0.1 mm 1 m/s 557 mmHg 60%
    11:00 +20°C° 0.1 mm 2 m/s 558 mmHg 57%
    12:00 +21°C° 0.1 mm 2 m/s 558 mmHg 55%
    13:00 +21°C° 0.1 mm 2 m/s 557 mmHg 53%
    14:00 +23°C° 0.1 mm 2 m/s 557 mmHg 51%
    15:00 +23°C° 0.3 mm 2 m/s 556 mmHg 52%
    16:00 +22°C° 0.3 mm 3 m/s 556 mmHg 54%
    17:00 +21°C° 0.3 mm 3 m/s 555 mmHg 55%
    18:00 +20°C° 0.7 mm 3 m/s 555 mmHg 61%
    19:00 +19°C° 0.7 mm 2 m/s 555 mmHg 67%
    20:00 +17°C° 0.7 mm 2 m/s 555 mmHg 73%
    21:00 +17°C° 1.7 mm 2 m/s 556 mmHg 75%
    22:00 +17°C° 1.7 mm 2 m/s 556 mmHg 77%
    23:00 +16°C° 1.7 mm 1 m/s 556 mmHg 80%

    25 Mars, Lundi

    Heure Température Précipitation Vent Pression Humidité
    00:00 +16°C° 2.7 mm 1 m/s 556 mmHg 80%
    01:00 +15°C° 2.7 mm 1 m/s 555 mmHg 81%
    02:00 +14°C° 2.7 mm 0 m/s 555 mmHg 81%
    03:00 +15°C° 1.5 mm 1 m/s 554 mmHg 82%
    04:00 +15°C° 1.5 mm 1 m/s 554 mmHg 83%
    05:00 +14°C° 1.5 mm 1 m/s 554 mmHg 84%
    06:00 +15°C° 0.9 mm 1 m/s 554 mmHg 82%
    07:00 +15°C° 0.9 mm 1 m/s 555 mmHg 80%
    08:00 +15°C° 0.9 mm 1 m/s 555 mmHg 78%
    09:00 +16°C° 0.8 mm 1 m/s 556 mmHg 74%
    10:00 +18°C° 0.8 mm 1 m/s 556 mmHg 70%
    11:00 +19°C° 0.8 mm 1 m/s 557 mmHg 66%
    12:00 +19°C° 0.8 mm 1 m/s 556 mmHg 65%
    13:00 +19°C° 0.8 mm 2 m/s 556 mmHg 63%
    14:00 +19°C° 0.8 mm 2 m/s 555 mmHg 61%
    15:00 +19°C° 0.6 mm 2 m/s 555 mmHg 62%
    16:00 +18°C° 0.6 mm 2 m/s 554 mmHg 63%
    17:00 +18°C° 0.6 mm 2 m/s 554 mmHg 64%
    18:00 +18°C° 0.6 mm 2 m/s 554 mmHg 67%
    19:00 +18°C° 0.6 mm 1 m/s 555 mmHg 69%
    20:00 +16°C° 0.6 mm 1 m/s 555 mmHg 72%
    21:00 +16°C° 0.6 mm 1 m/s 555 mmHg 74%
    22:00 +16°C° 0.6 mm 1 m/s 555 mmHg 76%
    23:00 +15°C° 0.6 mm 1 m/s 555 mmHg 78%

    26 Mars, Mardi

    Heure Température Précipitation Vent Pression Humidité
    00:00 +15°C° 0.5 mm 1 m/s 555 mmHg 80%
    01:00 +14°C° 0.5 mm 1 m/s 554 mmHg 82%
    02:00 +14°C° 0.5 mm 1 m/s 554 mmHg 84%
    03:00 +14°C° 0.5 mm 1 m/s 554 mmHg 85%
    04:00 +14°C° 0.5 mm 1 m/s 553 mmHg 86%
    05:00 +13°C° 0.5 mm 1 m/s 553 mmHg 87%
    06:00 +14°C° 1.3 mm 1 m/s 554 mmHg 85%
    07:00 +14°C° 1.3 mm 1 m/s 555 mmHg 83%
    08:00 +14°C° 1.3 mm 1 m/s 555 mmHg 82%
    09:00 +15°C° 2 mm 1 m/s 555 mmHg 79%
    10:00 +15°C° 2 mm 2 m/s 556 mmHg 77%
    11:00 +16°C° 2 mm 2 m/s 556 mmHg 74%
    12:00 +16°C° 1.4 mm 2 m/s 556 mmHg 72%
    13:00 +17°C° 1.4 mm 2 m/s 555 mmHg 70%
    14:00 +17°C° 1.4 mm 3 m/s 555 mmHg 68%
    15:00 +17°C° 1.1 mm 3 m/s 555 mmHg 69%
    16:00 +17°C° 1.1 mm 3 m/s 555 mmHg 71%
    17:00 +16°C° 1.1 mm 3 m/s 554 mmHg 72%
    18:00 +14°C° 1.4 mm 3 m/s 554 mmHg 75%
    19:00 +15°C° 1.4 mm 2 m/s 555 mmHg 78%
    20:00 +14°C° 1.4 mm 2 m/s 555 mmHg 81%
    21:00 +13°C° 1.3 mm 2 m/s 555 mmHg 82%
    22:00 +13°C° 1.3 mm 1 m/s 555 mmHg 83%
    23:00 +13°C° 1.3 mm 1 m/s 555 mmHg 84%

    27 Mars, Mercredi

    Heure Température Précipitation Vent Pression Humidité
    00:00 +12°C° 1.2 mm 1 m/s 555 mmHg 85%
    01:00 +12°C° 1.2 mm 1 m/s 555 mmHg 85%
    02:00 +12°C° 1.2 mm 1 m/s 554 mmHg 86%
    03:00 +12°C° 0.8 mm 1 m/s 554 mmHg 86%
    04:00 +12°C° 0.8 mm 1 m/s 555 mmHg 86%
    05:00 +12°C° 0.8 mm 1 m/s 555 mmHg 86%
    06:00 +12°C° 0.7 mm 1 m/s 555 mmHg 85%
    07:00 +13°C° 0.7 mm 1 m/s 556 mmHg 84%
    08:00 +13°C° 0.7 mm 1 m/s 556 mmHg 83%
    09:00 +14°C° 0.8 mm 2 m/s 557 mmHg 79%
    10:00 +15°C° 0.8 mm 2 m/s 557 mmHg 75%
    11:00 +16°C° 0.8 mm 2 m/s 558 mmHg 71%
    12:00 +16°C° 0.7 mm 2 m/s 557 mmHg 68%
    13:00 +17°C° 0.7 mm 2 m/s 557 mmHg 66%
    14:00 +18°C° 0.7 mm 2 m/s 557 mmHg 63%
    15:00 +18°C° 0.3 mm 2 m/s 557 mmHg 64%
    16:00 +18°C° 0.3 mm 2 m/s 557 mmHg 65%
    17:00 +18°C° 0.3 mm 2 m/s 556 mmHg 65%
    18:00 +17°C° 0.1 mm 2 m/s 556 mmHg 70%
    19:00 +16°C° 0.1 mm 2 m/s 556 mmHg 74%
    20:00 +15°C° 0.1 mm 2 m/s 556 mmHg 78%
    21:00 +14°C° 0.1 mm 2 m/s 557 mmHg 80%
    22:00 +14°C° 0.1 mm 1 m/s 557 mmHg 82%
    23:00 +14°C° 0.1 mm 1 m/s 557 mmHg 84%
    Voir plus